Find Starlink 11744

NORAD ID: 64380 Int'l Des: 2025-127 Owner: SPXS Country: US Constellation: starlink operational
LEOCIRCULAR

現在のビュー

3D地球を読み込み中...

Starlink 11744について

説明を読み込み中...

次回通過

Passes for default location (London). Set your location on the main map for personalized predictions.

高度履歴

Loading altitude history...

軌道要素

1 64380U 25127L 26146.59685367 .00169861 00000-0 12990-2 0 9990
2 64380 43.0002 335.0711 0005412 300.5098 59.5235 15.70852769 55750
Epoch: May 26, 2026 • Age: 9 hours

現在のステータス

高度 364.1 km
速度 7.69 km/s
衛星直下点 -38.99°S, 40.67°E
打ち上げ日 Jun 13, 2025
運用期間 0.9 years
タイプ internet

技術仕様

分類 Payload
質量 960.00 kg
乾燥質量 910.00 kg
総質量 960.00 kg
長さ 0.30 m
直径 4.10 m
スパン 29.00 m
形状 Box + pan
製造者 SPXS
バスタイプ Starlink V2MD
フェーズステータス In Orbit
所有者/国 SPXS/US

Most Searched